{"data":{"norad_id":58867,"intl_designator":"2024-019Q","name":"STARLINK-31198","alt_names":[],"object_type":"PAYLOAD","status":"ACTIVE","operator":null,"country":"US","launch_date":"2024-01-29","launch_site_code":"AFETR","launch_vehicle":null,"mission":null,"orbit_class":"UNKNOWN","rcs_meters":null,"size_class":null,"mass_kg":null,"dimensions":null,"purposes":["comms"],"wikipedia_slug":null,"has_3d_model":false,"image_url":null,"decayed_at":null,"tle_current":{"epoch":"2026-05-24T11:11:49.272864Z","epoch_age_seconds":117135,"freshness":"FRESH","line1":"1 58867U 24019Q   26144.46654251  .00003800  00000+0  14754-3 0  9994","line2":"2 58867  43.0003 180.7731 0000968 250.7069 109.3678 15.27579132130656","mean_motion":15.27579132,"eccentricity":9.68e-5,"inclination_deg":43.0003,"raan_deg":180.7731,"arg_perigee_deg":250.7069,"mean_anomaly_deg":109.3678,"bstar":0.00014754,"rev_number":13065,"period_min":94.266802277841,"perigee_km":482.38753207945,"apogee_km":483.71585821083,"semimajor_km":6861.1886951451,"source":"CELESTRAK","updated_at":"2026-05-25T13:38:18.760209Z"}}}